Dakar 2012 10ème étape

Dakar 2012 Argentine/Chili/Perou 10ème étape

Source : http://dakar.sport.francetv.fr/tous-les-classements

mercredi 11 janvier : Liaison 317km - Spécial 377km

Classement de la 10ème étape Moto - Iquique - Arica

RangNuméroPilote/EquipageEquipeMarque - ModèleTempsRetard
1 023 BARREDA BORT Joan HUSQVARNA RALLYE TEAM BY SPEEDBRAIN HUSQVARNA - Rally 450 RR 04:18:43
2 001 COMA Marc KTM MRW RALLY DAKAR EAM KTM - 450 cc 04:20:15 00:01:32
3 002 DESPRES Cyril TEAM RED BULL KTM KTM - 450cc Rally 04:22:22 00:03:39
4 010 VILADOMS Jordi BORDONE-FERRARI KTM - Rally Replica 04:27:31 00:08:48
5 032 SVITKO Stefan HANT LOGOMOTION SLOVAKIA KTM - 450 RR 04:28:27 00:09:44
6 006 ULLEVALSETER Pal Anders TEAM ULLEVALSETER KTM - 450 R 04:29:17 00:10:34
7 015 VERHOEVEN Frans SHERCO RALLY RAID - CROCOAVENTURES SHERCO - SR 450 04:33:42 00:14:59
8 008 FARIA Ruben TEAM RED BULL KTM KTM - 450 CC RALLY 04:34:13 00:15:30
9 034 BOTTURI ALESSANDRO BORDONE-FERRARI KTM - 450 RALLY REPLICA 04:35:55 00:17:12
10 007 GONCALVES Paulo HUSQVARNA RALLYE TEAM BY SPEEDBRAIN Husqvarna - Rally 450 RR 04:38:06 00:19:23
11 003 RODRIGUES Helder TEAM YAMAHA RACING YAMAHA - WRF 450 04:38:59 00:20:16
12 020 FARRES GUELL Gerard BORDONE-FERRARI KTM - 450 RALLY REPLICA 04:39:38 00:20:55
13 028 ZANOL FELIPE KTM BRASIL KTM - 450 Replica 04:43:13 00:24:30
14 016 PAIN Olivier TEAM YAMAHA RACING YAMAHA - 450 YZF Rally 04:48:24 00:29:41
15 018 KNUIMAN Henk WIM MOTORS DAKAR KTM - 450 REPLICA 04:51:49 00:33:06
16 053 RODRIGUEZ Claudio TAMARUGAL HONDA RACING XC RALLY TEAM HONDA - CRF 450 X 04:52:24 00:33:41
17 110 BIRCH Christopher MEMO TOURS - ALFIE COX TEAM KTM - 450 Replica 04:52:55 00:34:12
18 144 CURTIS Darryl MEMO TOURS - ALFIE COX TEAM KTM - 450 Replica 04:53:52 00:35:09
19 017 CZACHOR Jacek ORLEN TEAM KTM - 450 Replica 04:54:41 00:35:58
20 035 CECI Paolo BORDONE-FERRARI KTM - 450 RR 04:56:10 00:37:27
21 039 GYENES Emanuel VECTRA RACING KTM - 450 RR 04:57:21 00:38:38
22 022 DUCLOS Alain GIOFIL APRILIA APRILIA - RXV 4.5 Rally 04:58:04 00:39:21
23 064 SCHRÖDER DANIEL MEMO TOURS - ALFIE COX TEAM KTM - 450cc 04:58:09 00:39:26
24 021 AUBERT JOHNNY KTM RALLY FACTORY TEAM KTM - 450 RALLY 04:59:08 00:40:25
25 025 GOUET Daniel TAMARUGAL HONDA RACING XC RALLY TEAM HONDA - CRF 450 X 04:59:12 00:40:29
26 026 RODRIGUES FILHO Jose helio HUSQVARNA RALLYE TEAM BY SPEEDBRAIN HUQSVARNA - RALLY 450 RR 05:01:30 00:42:47
27 050 SALVATIERRA Juan Carlos GHR HONDA HONDA - CRF450X 05:03:02 00:44:19
28 089 NASCIMENTO DENISIO PETROBRAS LUBRAX HONDA - CRF 450 05:03:57 00:45:14
29 048 LIEFHEBBER Hans-jos KTM - 450 RR 05:04:06 00:45:23
30 012 PELLICER Jose Manuel HUSQVARNA RALLYE TEAM BY SPEEDBRAIN HUSQVARNA - Rally 450 RR 05:09:28 00:50:45
31 082 GUINDANI Vincent HFP YAMAHA - YZR 450 05:10:29 00:51:46
32 029 BERGLUND Thomas HUSABERG RALLY TEAM SCANDINAVIA HUSABERG - FE 450 05:12:22 00:53:39
33 145 NUTTALL Dean MEMO TOURS - ALFIE COX TEAM KTM - 450 Replica 05:12:26 00:53:43
34 040 SERRADORI Mathieu KTM - 450 Rally 05:15:49 00:57:06
35 077 PICCO Franco FRANCO PICCO RACING YAMAHA - WRF 450 05:15:54 00:57:11
36 060 WATT Stanley FRONT ROW GB / CRECENT KTM KTM - 450 RR 05:22:52 01:04:09
37 148 GOMEZ Mauricio PACO GOMEZ RALLY TEAM YAMAHA - WR 450 05:25:15 01:06:32
38 071 BUTUZA Marcel BOANO HONDA - CRE F 450 X 05:25:49 01:07:06
39 041 PROHENS Felipe TAMARUGAL HONDA RACING XC RALLY TEAM HONDA (Transformada) - CRF450X RALLY 05:26:10 01:07:27
40 042 PROHENS Jaime TAMARUGAL HONDA RACING XC RALLY TEAM HONDA - CRF 450X RALLY 05:26:32 01:07:49
41 154 GAJDOSECH ROBERTO ANTONIO ATUEL MOTOS YAMAHA - WR 450 05:26:45 01:08:02
42 066 LORMAND Etienne ROUSSILL'HOTEL - HFP YAMAHA - 450 WRF 05:26:55 01:08:12
43 159 CHITTICK Jamie GHR HONDA HONDA - CRF450X 05:28:32 01:09:49
44 068 BARROT David POWERBIKE YAMAHA IPONE YAMAHA - 450 IZF RALLY 05:29:04 01:10:21
45 043 PISANO Michael MP CONCEPT KTM - 450 RR 05:29:17 01:10:34
46 033 BETHYS Thierry YAMAHA - 450 YZF Rally 05:29:55 01:11:12
47 045 SANZ PLA-GILIBERT Eulalia GAS GAS GAS - GAS - EC 450 05:30:55 01:12:12
48 059 CIOTTI Filippo FRANCO PICCO RACING RIEJU - MRT 450 05:31:24 01:12:41
49 062 SCHWARZ David HUSABERG RALLYE RACING AUSTRALIA HUSABERG - FE450 05:31:50 01:13:07
50 046 BIANCHI PRATA Pedro TEAM BIANCHI PRATA / VODAFONE HUSQUARNA - TE449 RALLY 05:34:00 01:15:17
51 049 DABROWSKI Marek ORLEN TEAM KTM - 450 RR 05:37:15 01:18:32
52 183 RODRIGUEZ Pablo HONDA RACING ARGENTINA HONDA - CRF450X 05:38:32 01:19:49
53 057 WILLEMSEN Daniel TEAM HONDA EUROPE HONDA - CRF 450 X 05:41:25 01:22:42
54 138 LECOQ SEBASTIEN TEAM PERFORMANCE ENDURO YAMAHA - 450 YZFE 05:43:27 01:24:44
55 185 SANCHEZ MARCELO TEAM RPM KAWASAKI KAWASAKI - KLX 450 R 05:48:17 01:29:34
56 014 CASTEU David TEAM YAMAHA RACING YAMAHA - 450 WRF Rally 05:49:12 01:30:29
57 086 MUNK Jes X-RAGE RACING KTM - 450 05:50:19 01:31:36
58 056 MENARD Jean-Christophe HFP YAMAHA - 450 YZF 05:50:53 01:32:10
59 081 SUESSE NED ADVRIDER/ NEDURO KTM - 450XCW 05:52:06 01:33:23
60 181 RIOS FELIPE KTM PERU RALLY TEAM KTM - Rally Replica 05:52:25 01:33:42
61 100 VESELY Jan CZECH DAKAR TEAM YAMAHA - WR 450F 05:53:26 01:34:43
62 085 PENATE MUNOZ Pedro Manuel KH7 VALSEBIKE KTM - 450 05:57:48 01:39:05
63 061 MATTOS Dimas BRASIL MOTO TOUR KTM - 450 RR 05:58:52 01:40:09
64 076 PEDERZOLI Claudio ON-OFF RACING TEAM YAMAHA - WR 450 05:58:56 01:40:13
65 069 PAYEN Hugo YAMAHA - 450 WRF 06:01:58 01:43:15
66 073 BONY BRUNO EMS KTM - 450 RR 06:02:46 01:44:03
67 151 BEALUSTEGUI Juan Manuel AL LIMITE DAKAR 2012 YAMAHA - WR 450 F 06:03:44 01:45:01
68 164 DEMELCHORI DIEGO TEAM RPM KAWASAKI KAWASAKI - 2009 06:04:42 01:45:59
69 092 HAMARD Stephane REUNION RALLYE RAID KTM - 450 RR 06:04:55 01:46:12
70 122 PALANTE Eric WIM MOTORS RACING DIVISION KTM - 450 RR FREVA 06:05:00 01:46:17
71 080 PASCUAL Pablo oscar JINCHENG TEAM JINCHENG - JC450Y 06:07:48 01:49:05
72 075 BUSIN Pablo MOTO TEAM BY ELF YAMAHA - 450 WR 06:07:48 01:49:05
73 087 MEILLAT Christophe C.M PROMO KAWASAKI - KLX 450 R 06:08:27 01:49:44
74 065 LAZARD Laurent MOTO TEAM BY ELF YAMAHA - WR 450 06:10:10 01:51:27
75 165 MULDER GEERT TEAM HONDA EUROPE HONDA - CFR 450 X 06:17:37 01:58:54
76 072 GOUNON SERGE EMS KTM - 450 RR 06:17:51 01:59:08
77 120 ILLANES Rodrigo TARAPACA RALLY TEAM Husqvarna - TE 449 06:18:34 01:59:51
78 168 GUIRAL DEMIAN AVANT MOTOS HONDA GENUINE OIL HONDA - CRF 450X 06:18:59 02:00:16
79 098 BLONDEAU CHRISTOPHE TEAM FRANROC YAMAHA - YZF 450 06:23:20 02:04:37
80 150 BELAUSTEGUI Luis FREEDOM RALLY RACING KTM - SX 150 06:26:32 02:07:49
81 058 PUERTAS HERRERA Miguel HIMOINSA DAKAR TEAM YAMAHA - 450 WR 06:26:59 02:08:16
82 149 CIPKA DUSAN SLOVAKIA TURBOTEAM ZATKO BMW - G450X 06:29:06 02:10:23
83 091 TONETTI NICOLA TEAM BOANO HONDA - CRF 450 X 06:33:05 02:14:22
84 093 GOMEZ Jorge VEMOTOR CANARIAS Husqvarna - 450cc 06:37:09 02:18:26
85 074 KOFMAN Erik KTM - 450 RR 06:37:21 02:18:38
86 107 BODINGER Ronnie HUSABERG FACTORY TEAM HUSABERG - FE 450 06:49:06 02:30:23
87 102 ALAN Eduardo ELF ARGENTINA Yamaha - WR 450 06:50:38 02:31:55
88 174 MARTÍNEZ Paco PACO MARTINEZ KAWASAKI - KX450 06:51:23 02:32:40
89 152 TER BEEK RONALD GHR HONDA HONDA - CFR 450 X 06:58:33 02:39:50
90 131 THEURIOT Herve REVIVAL AVENTURES YAMAHA - 450 WRF 07:07:47 02:49:04
91 099 CHERPIN Pierre KTM - 450 RR 07:15:55 02:57:12
92 176 RAAF Greg MEMO TOURS - ALFIE COX TEAM KTM - 450 Replica 07:20:04 03:01:21
93 111 ESPINASSE SYLVAIN SHERCO RALLY RAID - CROCOAVENTURES SHERCO - SR 450 07:22:22 03:03:39
94 128 ANO Julio TEAM NORMAND RAID YAMAHA - WRF 450 07:33:33 03:14:50
95 136 IGARIS GINTAUTAS YAMAHA - WR450F 07:36:47 03:18:04
96 158 VELLUTINO Carlo PERUANOS AL DAKAR KTM - 450 EXC 2011 07:37:23 03:18:40
97 142 CAREVIC Andrés INSTITUTO NACIONAL DEL DEPORTE YAMAHA - 450 WR 07:45:05 03:26:22
98 129 DEPOORTER Philippe WIM MOTORS DAKAR KTM - 450 07:46:00 03:27:17
99 125 ASTORI Gianernesto ABC RALLY ACTION TEAM KTM - 450 RR 07:47:47 03:29:04
100 140 REINIKE MARCO MARCO REINIKE KTM - 450 RALLY REPLICA 07:55:13 03:36:30
101 096 CID DE LA PAZ Pablo PCP ASISTENCIA / MED BETA - RR 450 08:08:53 03:50:10
102 187 YOUNGER TOBIAS DESERT ROSE RACING KTM - 450EXC 08:40:43 04:22:00
103 177 VAN GEEL MARCO TEAM HONDA EUROPE HONDA - CFR 450 X 09:18:11 04:59:28
104 105 BARRON Jacques PERUANOS AL DAKAR KTM - 450 EXL 09:43:33 05:24:50
105 160 HAMEL ERIC YAMAHA - 450 WRF 10:55:42 06:36:59
106 094 WEI Guanghui JINCHENG TEAM JINCHENG - JC 450Y 12:43:57 08:25:14
107 112 GUYOMARC?H Yannick SCE PERFORMANCE / ASA POMPIERS DE PARIS YAMAHA - WRF 15:00:00 10:41:17
108 162 FLAMBERT OLIVIER TEAM AL DESERT YAMAHA - 450 WR 16:00:00 11:41:17
109 090 DIGUIET Gilles KTM - 450 CC 18:00:00 13:41:17

Classement général Moto

RangNuméroPilote/EquipageEquipeMarque - ModèleTempsRetard
1 002 DESPRES Cyril TEAM RED BULL KTM KTM - 450cc Rally 33:07:39
2 001 COMA Marc KTM MRW RALLY DAKAR EAM KTM - 450 cc 33:08:00 00:00:21
3 003 RODRIGUES Helder TEAM YAMAHA RACING YAMAHA - WRF 450 34:08:35 01:00:56
4 010 VILADOMS Jordi BORDONE-FERRARI KTM - Rally Replica 34:26:31 01:18:52
5 032 SVITKO Stefan HANT LOGOMOTION SLOVAKIA KTM - 450 RR 34:32:17 01:24:38
6 020 FARRES GUELL Gerard BORDONE-FERRARI KTM - 450 RALLY REPLICA 34:43:00 01:35:21
7 006 ULLEVALSETER Pal Anders TEAM ULLEVALSETER KTM - 450 R 35:04:01 01:56:22
8 034 BOTTURI ALESSANDRO BORDONE-FERRARI KTM - 450 RALLY REPLICA 35:23:30 02:15:51
9 016 PAIN Olivier TEAM YAMAHA RACING YAMAHA - 450 YZF Rally 35:31:01 02:23:22
10 008 FARIA Ruben TEAM RED BULL KTM KTM - 450 CC RALLY 35:48:06 02:40:27
11 028 ZANOL FELIPE KTM BRASIL KTM - 450 Replica 36:11:39 03:04:00
12 025 GOUET Daniel TAMARUGAL HONDA RACING XC RALLY TEAM HONDA - CRF 450 X 36:26:10 03:18:31
13 023 BARREDA BORT Joan HUSQVARNA RALLYE TEAM BY SPEEDBRAIN HUSQVARNA - Rally 450 RR 36:37:06 03:29:27
14 017 CZACHOR Jacek ORLEN TEAM KTM - 450 Replica 36:48:27 03:40:48
15 015 VERHOEVEN Frans SHERCO RALLY RAID - CROCOAVENTURES SHERCO - SR 450 37:01:45 03:54:06
16 021 AUBERT JOHNNY KTM RALLY FACTORY TEAM KTM - 450 RALLY 37:15:51 04:08:12
17 018 KNUIMAN Henk WIM MOTORS DAKAR KTM - 450 REPLICA 37:32:45 04:25:06
18 039 GYENES Emanuel VECTRA RACING KTM - 450 RR 37:33:49 04:26:10
19 035 CECI Paolo BORDONE-FERRARI KTM - 450 RR 37:37:33 04:29:54
20 026 RODRIGUES FILHO Jose helio HUSQVARNA RALLYE TEAM BY SPEEDBRAIN HUQSVARNA - RALLY 450 RR 37:56:01 04:48:22
21 012 PELLICER Jose Manuel HUSQVARNA RALLYE TEAM BY SPEEDBRAIN HUSQVARNA - Rally 450 RR 38:11:45 05:04:06
22 064 SCHRÖDER DANIEL MEMO TOURS - ALFIE COX TEAM KTM - 450cc 38:40:25 05:32:46
23 033 BETHYS Thierry YAMAHA - 450 YZF Rally 39:05:00 05:57:21
24 082 GUINDANI Vincent HFP YAMAHA - YZR 450 39:12:06 06:04:27
25 043 PISANO Michael MP CONCEPT KTM - 450 RR 39:13:23 06:05:44
26 144 CURTIS Darryl MEMO TOURS - ALFIE COX TEAM KTM - 450 Replica 39:23:11 06:15:32
27 089 NASCIMENTO DENISIO PETROBRAS LUBRAX HONDA - CRF 450 39:24:55 06:17:16
28 040 SERRADORI Mathieu KTM - 450 Rally 39:57:29 06:49:50
29 048 LIEFHEBBER Hans-jos KTM - 450 RR 40:00:39 06:53:00
30 041 PROHENS Felipe TAMARUGAL HONDA RACING XC RALLY TEAM HONDA (Transformada) - CRF450X RALLY 40:16:16 07:08:37
31 042 PROHENS Jaime TAMARUGAL HONDA RACING XC RALLY TEAM HONDA - CRF 450X RALLY 40:21:42 07:14:03
32 110 BIRCH Christopher MEMO TOURS - ALFIE COX TEAM KTM - 450 Replica 40:29:18 07:21:39
33 053 RODRIGUEZ Claudio TAMARUGAL HONDA RACING XC RALLY TEAM HONDA - CRF 450 X 40:32:49 07:25:10
34 049 DABROWSKI Marek ORLEN TEAM KTM - 450 RR 40:33:39 07:26:00
35 066 LORMAND Etienne ROUSSILL'HOTEL - HFP YAMAHA - 450 WRF 40:37:08 07:29:29
36 007 GONCALVES Paulo HUSQVARNA RALLYE TEAM BY SPEEDBRAIN Husqvarna - Rally 450 RR 40:49:20 07:41:41
37 145 NUTTALL Dean MEMO TOURS - ALFIE COX TEAM KTM - 450 Replica 41:37:54 08:30:15
38 050 SALVATIERRA Juan Carlos GHR HONDA HONDA - CRF450X 41:40:56 08:33:17
39 060 WATT Stanley FRONT ROW GB / CRECENT KTM KTM - 450 RR 41:51:19 08:43:40
40 029 BERGLUND Thomas HUSABERG RALLY TEAM SCANDINAVIA HUSABERG - FE 450 41:51:19 08:43:40
41 045 SANZ PLA-GILIBERT Eulalia GAS GAS GAS - GAS - EC 450 43:01:38 09:53:59
42 057 WILLEMSEN Daniel TEAM HONDA EUROPE HONDA - CRF 450 X 43:04:03 09:56:24
43 154 GAJDOSECH ROBERTO ANTONIO ATUEL MOTOS YAMAHA - WR 450 43:15:48 10:08:09
44 062 SCHWARZ David HUSABERG RALLYE RACING AUSTRALIA HUSABERG - FE450 43:17:21 10:09:42
45 071 BUTUZA Marcel BOANO HONDA - CRE F 450 X 43:20:57 10:13:18
46 183 RODRIGUEZ Pablo HONDA RACING ARGENTINA HONDA - CRF450X 43:26:19 10:18:40
47 046 BIANCHI PRATA Pedro TEAM BIANCHI PRATA / VODAFONE HUSQUARNA - TE449 RALLY 43:29:25 10:21:46
48 148 GOMEZ Mauricio PACO GOMEZ RALLY TEAM YAMAHA - WR 450 43:47:16 10:39:37
49 077 PICCO Franco FRANCO PICCO RACING YAMAHA - WRF 450 44:20:42 11:13:03
50 138 LECOQ SEBASTIEN TEAM PERFORMANCE ENDURO YAMAHA - 450 YZFE 44:21:17 11:13:38
51 181 RIOS FELIPE KTM PERU RALLY TEAM KTM - Rally Replica 44:25:33 11:17:54
52 061 MATTOS Dimas BRASIL MOTO TOUR KTM - 450 RR 44:30:32 11:22:53
53 185 SANCHEZ MARCELO TEAM RPM KAWASAKI KAWASAKI - KLX 450 R 44:38:48 11:31:09
54 059 CIOTTI Filippo FRANCO PICCO RACING RIEJU - MRT 450 44:48:06 11:40:27
55 081 SUESSE NED ADVRIDER/ NEDURO KTM - 450XCW 44:50:51 11:43:12
56 014 CASTEU David TEAM YAMAHA RACING YAMAHA - 450 WRF Rally 45:00:21 11:52:42
57 068 BARROT David POWERBIKE YAMAHA IPONE YAMAHA - 450 IZF RALLY 45:06:10 11:58:31
58 056 MENARD Jean-Christophe HFP YAMAHA - 450 YZF 45:12:10 12:04:31
59 086 MUNK Jes X-RAGE RACING KTM - 450 45:14:43 12:07:04
60 092 HAMARD Stephane REUNION RALLYE RAID KTM - 450 RR 45:16:26 12:08:47
61 159 CHITTICK Jamie GHR HONDA HONDA - CRF450X 45:31:13 12:23:34
62 087 MEILLAT Christophe C.M PROMO KAWASAKI - KLX 450 R 45:33:35 12:25:56
63 065 LAZARD Laurent MOTO TEAM BY ELF YAMAHA - WR 450 46:14:19 13:06:40
64 149 CIPKA DUSAN SLOVAKIA TURBOTEAM ZATKO BMW - G450X 46:28:00 13:20:21
65 165 MULDER GEERT TEAM HONDA EUROPE HONDA - CFR 450 X 46:44:52 13:37:13
66 069 PAYEN Hugo YAMAHA - 450 WRF 47:07:57 14:00:18
67 100 VESELY Jan CZECH DAKAR TEAM YAMAHA - WR 450F 47:20:34 14:12:55
68 072 GOUNON SERGE EMS KTM - 450 RR 47:25:28 14:17:49
69 168 GUIRAL DEMIAN AVANT MOTOS HONDA GENUINE OIL HONDA - CRF 450X 47:32:37 14:24:58
70 058 PUERTAS HERRERA Miguel HIMOINSA DAKAR TEAM YAMAHA - 450 WR 47:39:55 14:32:16
71 122 PALANTE Eric WIM MOTORS RACING DIVISION KTM - 450 RR FREVA 47:40:21 14:32:42
72 164 DEMELCHORI DIEGO TEAM RPM KAWASAKI KAWASAKI - 2009 47:59:15 14:51:36
73 076 PEDERZOLI Claudio ON-OFF RACING TEAM YAMAHA - WR 450 48:13:54 15:06:15
74 075 BUSIN Pablo MOTO TEAM BY ELF YAMAHA - 450 WR 48:23:05 15:15:26
75 091 TONETTI NICOLA TEAM BOANO HONDA - CRF 450 X 48:38:15 15:30:36
76 022 DUCLOS Alain GIOFIL APRILIA APRILIA - RXV 4.5 Rally 49:25:44 16:18:05
77 093 GOMEZ Jorge VEMOTOR CANARIAS Husqvarna - 450cc 49:49:00 16:41:21
78 074 KOFMAN Erik KTM - 450 RR 50:11:50 17:04:11
79 080 PASCUAL Pablo oscar JINCHENG TEAM JINCHENG - JC450Y 50:23:14 17:15:35
80 073 BONY BRUNO EMS KTM - 450 RR 50:41:10 17:33:31
81 174 MARTÍNEZ Paco PACO MARTINEZ KAWASAKI - KX450 51:46:44 18:39:05
82 107 BODINGER Ronnie HUSABERG FACTORY TEAM HUSABERG - FE 450 52:45:55 19:38:16
83 150 BELAUSTEGUI Luis FREEDOM RALLY RACING KTM - SX 150 53:23:23 20:15:44
84 177 VAN GEEL MARCO TEAM HONDA EUROPE HONDA - CFR 450 X 54:06:46 20:59:07
85 151 BEALUSTEGUI Juan Manuel AL LIMITE DAKAR 2012 YAMAHA - WR 450 F 54:22:16 21:14:37
86 176 RAAF Greg MEMO TOURS - ALFIE COX TEAM KTM - 450 Replica 54:51:23 21:43:44
87 085 PENATE MUNOZ Pedro Manuel KH7 VALSEBIKE KTM - 450 55:11:51 22:04:12
88 136 IGARIS GINTAUTAS YAMAHA - WR450F 55:35:09 22:27:30
89 102 ALAN Eduardo ELF ARGENTINA Yamaha - WR 450 55:36:09 22:28:30
90 131 THEURIOT Herve REVIVAL AVENTURES YAMAHA - 450 WRF 55:51:56 22:44:17
91 098 BLONDEAU CHRISTOPHE TEAM FRANROC YAMAHA - YZF 450 55:59:00 22:51:21
92 099 CHERPIN Pierre KTM - 450 RR 56:23:35 23:15:56
93 120 ILLANES Rodrigo TARAPACA RALLY TEAM Husqvarna - TE 449 59:11:36 26:03:57
94 129 DEPOORTER Philippe WIM MOTORS DAKAR KTM - 450 60:07:48 27:00:09
95 158 VELLUTINO Carlo PERUANOS AL DAKAR KTM - 450 EXC 2011 60:42:49 27:35:10
96 111 ESPINASSE SYLVAIN SHERCO RALLY RAID - CROCOAVENTURES SHERCO - SR 450 62:30:03 29:22:24
97 125 ASTORI Gianernesto ABC RALLY ACTION TEAM KTM - 450 RR 63:43:59 30:36:20
98 140 REINIKE MARCO MARCO REINIKE KTM - 450 RALLY REPLICA 64:36:03 31:28:24
99 152 TER BEEK RONALD GHR HONDA HONDA - CFR 450 X 64:55:25 31:47:46
100 096 CID DE LA PAZ Pablo PCP ASISTENCIA / MED BETA - RR 450 65:53:22 32:45:43
101 112 GUYOMARC?H Yannick SCE PERFORMANCE / ASA POMPIERS DE PARIS YAMAHA - WRF 65:58:25 32:50:46
102 105 BARRON Jacques PERUANOS AL DAKAR KTM - 450 EXL 69:23:04 36:15:25
103 094 WEI Guanghui JINCHENG TEAM JINCHENG - JC 450Y 69:27:12 36:19:33
104 090 DIGUIET Gilles KTM - 450 CC 70:55:54 37:48:15
105 128 ANO Julio TEAM NORMAND RAID YAMAHA - WRF 450 71:38:44 38:31:05
106 187 YOUNGER TOBIAS DESERT ROSE RACING KTM - 450EXC 92:17:41 59:10:02
107 142 CAREVIC Andrés INSTITUTO NACIONAL DEL DEPORTE YAMAHA - 450 WR 94:30:46 61:23:07
108 160 HAMEL ERIC YAMAHA - 450 WRF 108:18:13 75:10:34
109 162 FLAMBERT OLIVIER TEAM AL DESERT YAMAHA - 450 WR 113:35:04 80:27:25

Aucune note. Soyez le premier à attribuer une note !

Ajouter un commentaire

Vous utilisez un logiciel de type AdBlock, qui bloque le service de captchas publicitaires utilisé sur ce site. Pour pouvoir envoyer votre message, désactivez Adblock.

Créer un site gratuit avec e-monsite - Signaler un contenu illicite sur ce site

×